Cloud_Cover
69 6 0 2 0 0 0 0 0 0 0 0 0 0 0 0 0 0 0 0 0 0 0 3 0 0 3 100 98 32 5 5 99
47 5 0 2 0 0 0 0 0 0 0 0 0 0 0 0 0 0 0 0 0 0 0 0 0 2 2 4 50 95 90 8 92
5 5 0 5 0 0 0 0 0 0 0 0 0 0 0 0 0 0 0 0 0 0 0 2 4 4 78 90 22 74 52 86 71
25 5 0 0 0 0 0 0 0 0 0 0 0 0 0 0 0 0 0 0 0 0 0 0 0 33 29 64 49 100 100 49 30
67 98 1 0 3 0 0 0 0 0 0 0 0 0 0 0 0 0 0 0 0 0 0 0 0 5 8 56 70 94 69 54 36
0 94 100 2 0 0 0 0 0 0 0 0 0 0 0 0 0 0 0 0 0 0 0 0 5 10 5 62 72 100 100 100 100
1 65 1 0 0 0 0 0 0 0 0 0 0 0 0 0 0 0 0 0 0 0 0 4 5 4 5 86 100 100 100 100 100
0 0 0 0 0 0 0 0 0 0 0 0 0 0 0 0 0 0 0 0 0 0 0 2 0 5 66 100 100 100 100 99 72
0 0 2 0 0 0 0 1 0 0 0 0 0 0 0 0 0 0 0 0 0 6 9 61 5 5 100 100 83 86 99 100 94
0 0 0 0 0 0 0 5 5 0 0 0 0 0 0 0 0 0 0 0 5 23 34 55 11 49 5 89 61 21 53 100 82
0 0 0 0 0 0 0 5 4 5 0 0 0 0 0 0 0 0 0 18 39 71 100 100 99 100 25 20 2 7 29 90 9
6 0 3 0 0 0 0 1 5 1 0 0 0 0 0 0 0 8 20 56 93 100 93 100 96 63 28 13 91 35 8 72 1
100 15 0 0 0 0 0 0 0 0 0 0 0 0 0 0 0 6 11 38 100 98 100 100 100 100 91 100 95 41 5 5 92
99 10 6 5 5 5 5 2 0 0 0 0 0 0 2 4 5 37 100 100 87 100 100 100 100 100 99 98 74 17 7 95 73
5 5 5 5 5 5 5 5 5 0 0 0 0 8 95 48 58 99 100 96 88 67 78 100 100 95 90 79 13 41 24 69 98
0 1 5 5 5 5 5 5 5 3 5 5 5 38 100 100 100 100 100 100 72 87 100 100 62 73 94 67 1 40 98 99 98
0 5 32 0 4 5 5 5 5 8 23 9 48 54 96 100 100 100 97 98 100 98 87 71 88 28 34 33 33 57 4 49 87
52 38 76 17 15 42 71 5 5 5 7 32 81 99 100 100 100 99 93 94 59 50 99 43 15 96 42 85 8 5 85 80 100
77 100 100 78 77 68 66 8 74 100 75 7 42 97 100 100 77 94 64 98 100 97 75 96 75 10 41 11 39 1 23 5 10
95 100 99 94 100 100 100 100 100 100 100 100 99 88 100 100 100 35 41 83 81 14 33 4 0 0 0 0 5 0 0 0 0